Wind_Speed
42 42 42 43 42 41 40 41 41 42 40 36 38 40 41 41 41 39 38 37 33 33 36 35 32 29 27 26 26 27 27 27 28 29 29 30 29 28 29 30 30 31 33
46 45 45 46 46 46 45 45 44 44 43 41 41 42 42 43 39 40 44 40 33 35 35 36 34 31 29 28 28 28 28 28 29 29 30 30 28 27 30 30 30 31 32
46 47 47 49 47 45 44 47 48 47 46 44 43 44 43 45 47 43 43 38 37 36 36 38 36 33 31 31 30 30 29 29 29 30 30 28 27 27 28 29 30 31 32
41 41 42 46 49 47 46 46 46 47 47 46 44 45 45 43 48 49 44 45 41 37 36 38 37 34 33 33 32 32 31 30 28 33 30 27 26 27 28 28 28 29 30
28 31 35 40 42 43 44 45 47 47 45 45 46 46 46 47 43 45 43 46 37 39 36 39 37 36 35 35 35 33 32 29 35 33 33 27 26 26 27 27 25 27 29
25 22 23 25 29 33 35 37 38 40 42 43 45 46 46 47 45 38 41 35 34 36 37 38 38 37 36 36 36 35 32 38 32 39 28 26 27 28 29 28 28 28 30
36 35 33 28 26 26 27 29 32 33 36 40 40 41 41 41 34 39 40 40 44 33 37 37 39 38 38 38 37 36 35 40 39 32 28 27 28 30 30 29 30 31 32
30 28 28 27 27 27 27 27 27 28 29 30 33 34 36 32 30 37 39 35 37 36 38 38 39 40 38 39 38 36 42 42 47 26 31 31 31 30 30 30 31 31 32
27 27 26 27 28 29 30 31 30 30 29 29 30 31 31 25 33 38 35 40 44 38 39 39 39 40 40 40 39 43 43 49 35 30 33 32 31 30 30 31 32 33 33
21 23 24 26 27 27 28 30 32 32 31 31 32 30 27 30 35 34 40 38 38 37 38 40 41 40 40 40 44 46 49 45 32 35 30 32 29 30 32 32 32 32 34
24 26 28 30 32 33 33 33 31 31 30 32 34 32 28 33 33 39 36 40 39 40 40 41 41 42 44 44 46 51 49 41 43 31 31 37 28 31 33 33 33 33 33
22 22 24 25 27 29 32 34 34 32 32 30 30 33 33 33 38 39 40 39 44 39 42 42 42 44 46 46 51 47 49 47 48 32 38 32 31 33 35 34 34 33 33
27 27 28 27 27 28 28 29 31 31 31 31 34 33 33 33 39 39 41 42 43 41 44 44 44 45 46 48 52 53 49 45 45 35 41 30 34 36 36 37 35 33 34
27 28 29 29 28 29 29 29 30 31 31 30 30 32 34 36 37 39 41 47 47 44 42 45 45 45 48 52 53 53 49 48 40 39 42 32 36 38 39 38 36 35 34
27 27 28 29 28 28 29 29 30 32 33 34 34 35 37 37 37 40 45 48 50 49 53 54 53 51 53 53 54 50 47 51 38 42 41 34 37 39 39 38 37 37 35
30 29 28 28 28 28 28 29 29 29 29 30 31 32 32 34 37 41 45 50 54 57 60 58 57 56 54 52 51 51 49 51 40 46 40 35 38 39 39 38 37 37 36
28 29 29 28 27 26 27 27 28 29 29 29 31 31 30 31 35 39 42 48 53 54 55 55 55 53 48 47 52 51 49 52 50 42 35 39 40 39 38 38 38 38 38
24 23 23 24 25 25 25 26 28 28 28 28 30 31 33 34 35 36 38 41 44 48 50 49 47 43 47 47 53 49 46 48 46 39 38 42 47 41 38 38 38 40 40
28 28 29 29 29 29 29 30 31 32 33 33 33 34 37 37 38 38 38 40 40 39 36 35 37 42 49 49 48 48 47 47 49 48 43 46 48 46 44 42 40 41 41
29 30 30 31 31 32 33 33 33 34 35 35 36 36 36 39 39 38 38 39 39 37 35 34 35 39 43 46 50 46 43 47 49 53 51 50 50 48 47 46 46 49 46
30 31 31 33 34 35 36 36 37 38 38 38 39 39 39 39 39 40 40 39 37 37 37 38 39 41 42 45 46 49 47 49 51 51 54 55 57 52 49 47 52 49 51
31 32 33 35 36 38 39 40 41 42 42 43 42 41 41 41 41 40 40 40 39 39 38 40 43 44 45 46 48 47 48 46 48 46 53 59 57 54 51 52 53 54 50
34 35 37 38 39 39 40 40 40 41 41 42 42 42 42 41 41 40 40 39 39 40 40 40 42 44 46 46 44 43 43 43 43 45 46 49 51 52 52 53 53 51 48
35 36 38 38 39 39 39 39 39 39 39 39 39 40 41 42 43 43 43 43 42 40 39 39 40 40 41 41 41 42 43 44 45 44 45 47 48 48 49 49 47 46 45
37 39 40 40 39 38 37 36 36 36 37 39 41 42 44 47 49 50 50 49 48 46 45 44 43 43 44 44 44 44 44 44 45 45 45 45 45 46 46 46 44 43 44
40 40 39 38 37 36 36 36 38 40 41 40 40 42 45 47 49 51 51 51 50 48 47 47 47 46 45 45 45 45 44 44 43 43 44 45 44 44 43 43 43 43 42
Wind_Direction
257 262 263 262 262 264 267 271 274 277 279 275 270 270 272 273 275 282 276 282 278 268 252 247 251 255 263 272 283 292 299 304 304 303 303 304 305 312 316 318 322 327 330
257 259 262 265 267 271 273 271 271 272 274 273 269 269 270 271 269 277 271 281 278 275 254 249 251 255 262 270 279 288 295 299 300 301 301 297 302 309 312 316 322 326 331
261 263 263 265 271 273 274 273 270 269 269 269 269 270 271 275 262 276 267 272 284 272 256 251 253 257 262 270 277 284 290 293 294 299 295 296 301 307 310 316 322 326 330
267 267 269 269 270 270 269 267 264 266 266 265 266 267 269 270 275 277 271 269 274 267 256 253 255 258 262 268 275 280 284 290 292 296 295 293 299 305 309 315 320 325 329
274 276 273 266 264 265 264 265 266 265 263 263 264 265 267 267 268 265 263 268 268 278 258 254 257 259 264 270 274 278 281 286 293 291 297 290 296 303 306 311 317 320 324
280 288 289 287 276 270 269 269 268 269 269 269 271 272 273 272 270 249 267 258 272 269 258 253 256 259 264 269 274 277 277 292 280 295 288 288 294 301 302 307 312 318 321
284 286 287 287 284 281 278 275 273 271 272 274 272 271 270 269 259 252 250 268 259 264 258 255 260 264 267 269 272 275 280 286 280 286 280 286 295 296 300 304 310 315 320
278 276 274 270 269 272 275 278 280 279 277 277 276 273 267 264 253 251 263 267 267 275 259 255 260 264 267 269 271 269 280 271 288 277 279 283 287 292 298 303 307 312 316
271 270 272 275 279 281 281 280 279 278 278 275 270 268 267 252 247 258 262 269 269 263 253 257 262 265 268 269 268 276 268 279 278 273 276 278 282 291 296 301 304 308 311
284 279 278 280 284 288 288 289 288 287 286 282 274 266 256 250 250 247 258 258 265 255 259 262 265 267 268 269 273 269 272 284 274 283 267 275 279 286 292 296 300 305 309
285 284 284 284 285 284 283 282 284 288 291 291 287 276 261 257 257 253 277 266 258 257 258 263 266 268 269 268 267 267 274 281 287 269 265 273 276 282 288 293 296 301 305
280 277 276 275 278 280 280 279 277 276 276 277 280 280 273 252 254 267 267 266 262 259 262 265 267 266 268 267 264 262 276 287 289 260 264 268 274 280 284 288 291 297 300
287 286 286 286 287 287 288 288 283 279 279 281 280 274 269 262 258 263 266 270 261 261 261 265 267 268 269 265 267 270 284 283 282 260 266 268 274 278 283 285 288 292 295
281 282 282 283 284 285 283 282 281 282 280 276 277 277 276 271 262 262 265 266 264 263 264 265 266 268 266 265 266 274 285 286 267 261 266 267 271 277 281 283 285 288 290
280 279 280 281 283 282 281 281 281 281 281 280 278 275 274 273 268 262 263 266 266 263 264 266 266 264 264 267 274 282 284 287 261 260 261 263 271 277 281 280 283 285 287
279 279 280 279 280 281 279 280 280 280 282 281 279 277 276 273 269 269 274 272 272 271 271 271 272 269 270 275 279 284 284 280 260 261 258 267 272 274 279 278 281 282 284
284 284 285 285 284 284 283 283 282 284 283 281 283 283 283 281 279 277 278 278 277 278 281 280 276 275 277 272 276 284 284 280 269 258 262 270 269 271 277 278 280 282 282
289 289 292 293 294 294 294 290 288 287 287 289 288 288 288 287 285 283 284 284 289 291 289 288 286 274 271 274 278 286 284 279 268 255 268 267 269 266 267 274 277 279 279
292 294 295 295 295 295 294 294 293 292 292 290 290 291 292 292 293 292 288 289 291 293 293 291 286 271 266 270 277 283 280 276 261 257 263 267 271 273 269 263 267 272 275
295 296 298 298 298 298 298 298 298 297 296 296 296 295 293 293 294 295 294 293 293 293 290 281 277 275 270 266 274 280 265 260 266 268 269 269 271 270 277 276 275 272 270
293 295 296 298 299 299 298 297 298 298 298 298 297 298 297 296 295 294 293 293 291 289 286 280 274 272 273 273 277 277 281 277 279 279 268 267 271 270 269 271 276 277 280
294 295 297 299 300 302 303 302 301 300 300 300 299 298 297 296 294 292 290 288 286 283 279 279 279 279 279 279 278 280 278 279 277 280 276 271 271 272 272 272 273 276 281
300 301 301 301 301 301 301 300 300 300 299 298 298 298 298 296 294 293 292 289 286 284 283 281 279 278 278 279 282 284 284 283 281 277 275 274 276 277 278 277 276 275 275
302 304 304 305 305 304 303 302 301 301 300 300 300 299 298 296 294 290 287 287 287 285 283 282 283 283 283 283 283 282 282 282 282 280 280 280 280 279 277 275 274 273 271
305 306 307 307 306 305 305 304 303 302 301 301 300 298 296 293 290 286 284 283 282 282 283 283 283 284 284 285 285 285 285 284 284 283 281 278 277 277 276 275 272 270 270
304 304 303 302 301 301 300 301 300 300 300 299 299 301 300 297 292 288 284 281 280 281 281 282 283 284 284 285 285 285 285 285 285 285 283 279 276 274 274 273 271 270 268
Height
3126 3126 3126 3127 3127 3128 3129 3130 3130 3131 3133 3134 3132 3131 3131 3130 3129 3128 3128 3127 3127 3126 3126 3128 3129 3129 3129 3128 3128 3127 3123 3120 3118 3114 3112 3109 3106 3103 3100 3095 3090 3086 3080
3116 3118 3118 3119 3119 3121 3122 3122 3121 3121 3122 3124 3123 3122 3121 3122 3121 3120 3120 3118 3119 3119 3119 3120 3121 3121 3122 3121 3120 3120 3117 3114 3112 3109 3106 3103 3100 3096 3093 3089 3084 3079 3074
3107 3108 3110 3109 3110 3112 3112 3112 3112 3111 3111 3112 3113 3114 3114 3113 3116 3114 3112 3112 3111 3110 3111 3112 3114 3114 3114 3114 3112 3112 3110 3106 3105 3102 3100 3096 3093 3090 3087 3082 3079 3074 3070
3097 3098 3099 3099 3100 3100 3101 3100 3100 3101 3101 3101 3101 3102 3102 3102 3103 3104 3102 3104 3104 3102 3103 3105 3107 3107 3106 3105 3104 3103 3102 3099 3097 3094 3092 3090 3087 3085 3081 3077 3073 3070 3066
3089 3090 3090 3088 3088 3088 3088 3088 3089 3089 3089 3090 3090 3090 3091 3091 3091 3095 3095 3095 3093 3095 3096 3098 3099 3100 3099 3098 3097 3094 3093 3090 3088 3086 3084 3083 3080 3077 3076 3072 3069 3066 3062
3084 3083 3082 3082 3079 3078 3078 3078 3078 3078 3079 3079 3081 3081 3081 3081 3081 3083 3086 3084 3084 3086 3087 3089 3090 3090 3090 3090 3088 3086 3084 3081 3079 3078 3077 3075 3073 3070 3068 3065 3062 3059 3056
3076 3076 3076 3075 3074 3072 3071 3069 3069 3068 3068 3069 3068 3068 3069 3070 3072 3073 3075 3076 3075 3076 3080 3081 3083 3082 3082 3081 3080 3078 3075 3072 3070 3068 3068 3067 3066 3063 3061 3058 3055 3052 3048
3068 3068 3067 3066 3065 3065 3065 3065 3063 3061 3059 3058 3059 3058 3058 3058 3062 3065 3066 3067 3066 3067 3070 3071 3072 3072 3072 3072 3070 3068 3065 3062 3063 3062 3060 3058 3057 3056 3053 3051 3048 3045 3042
3062 3062 3061 3061 3060 3059 3058 3057 3055 3054 3051 3048 3049 3049 3050 3049 3054 3057 3058 3058 3058 3059 3061 3062 3063 3063 3063 3063 3060 3059 3055 3054 3052 3052 3052 3051 3049 3047 3045 3043 3041 3037 3034
3056 3056 3055 3055 3054 3053 3051 3051 3050 3047 3045 3043 3042 3041 3041 3042 3043 3046 3047 3046 3047 3049 3053 3054 3055 3055 3053 3052 3051 3048 3045 3045 3042 3043 3045 3042 3040 3040 3037 3035 3032 3029 3026
3049 3049 3048 3048 3046 3045 3044 3043 3041 3040 3037 3037 3037 3035 3034 3037 3037 3039 3037 3039 3038 3040 3041 3043 3045 3044 3043 3042 3040 3036 3036 3036 3034 3033 3034 3032 3031 3031 3029 3027 3024 3021 3019
3041 3041 3040 3038 3037 3036 3035 3034 3032 3030 3029 3027 3027 3028 3028 3029 3031 3031 3031 3030 3028 3029 3032 3033 3033 3032 3031 3030 3027 3026 3026 3025 3024 3022 3023 3022 3022 3021 3020 3018 3016 3013 3011
3035 3034 3034 3033 3031 3029 3028 3026 3024 3023 3021 3021 3021 3019 3020 3021 3022 3022 3021 3021 3015 3017 3018 3019 3018 3019 3019 3019 3018 3016 3015 3014 3012 3011 3011 3012 3012 3011 3010 3008 3007 3004 3002
3028 3027 3026 3025 3023 3021 3020 3018 3016 3015 3013 3011 3010 3011 3011 3012 3012 3013 3011 3009 3007 3005 3006 3006 3005 3005 3006 3005 3003 3003 3003 3002 3000 3001 3000 3001 3000 3001 2999 2998 2997 2994 2993
3019 3018 3017 3015 3014 3012 3011 3009 3007 3005 3004 3003 3002 3001 3002 3002 3002 3000 2998 2997 2996 2994 2992 2990 2990 2990 2991 2990 2991 2992 2992 2990 2988 2989 2988 2988 2989 2989 2989 2987 2986 2984 2982
3012 3010 3008 3007 3005 3005 3003 3002 2999 2997 2996 2994 2992 2992 2992 2991 2991 2988 2987 2986 2984 2981 2978 2978 2978 2977 2977 2979 2980 2980 2979 2977 2976 2976 2976 2976 2978 2978 2978 2976 2975 2973 2972
3004 3003 3001 3000 2998 2996 2994 2993 2991 2989 2988 2987 2985 2984 2983 2982 2980 2978 2977 2975 2971 2969 2966 2967 2966 2966 2968 2970 2969 2968 2966 2965 2963 2965 2963 2965 2966 2965 2965 2964 2963 2962 2962
2996 2994 2993 2991 2989 2987 2985 2984 2982 2981 2981 2980 2977 2976 2974 2972 2971 2969 2967 2963 2961 2959 2956 2955 2956 2957 2959 2959 2959 2957 2953 2952 2952 2952 2953 2952 2951 2950 2950 2951 2950 2950 2949
2989 2987 2985 2983 2981 2979 2977 2975 2974 2972 2971 2971 2970 2968 2964 2962 2960 2957 2955 2952 2950 2948 2946 2945 2945 2947 2948 2947 2946 2943 2942 2940 2939 2938 2939 2938 2938 2937 2937 2936 2936 2936 2936
2981 2979 2978 2977 2975 2973 2970 2968 2966 2963 2961 2959 2957 2955 2953 2950 2949 2946 2943 2941 2938 2937 2936 2935 2934 2935 2935 2933 2932 2930 2928 2928 2927 2927 2925 2924 2923 2923 2921 2921 2922 2921 2921
2973 2971 2968 2968 2967 2964 2960 2957 2955 2953 2951 2949 2946 2944 2941 2938 2937 2934 2931 2929 2927 2926 2924 2923 2922 2921 2920 2920 2919 2917 2916 2914 2913 2912 2910 2908 2908 2909 2908 2907 2906 2907 2906
2965 2962 2961 2959 2957 2955 2952 2948 2945 2943 2940 2938 2935 2932 2928 2926 2924 2922 2919 2917 2914 2913 2912 2910 2909 2908 2907 2906 2905 2902 2900 2898 2897 2896 2895 2894 2893 2893 2892 2891 2892 2893 2893
2955 2953 2951 2949 2946 2943 2941 2937 2934 2930 2928 2924 2921 2919 2917 2915 2912 2909 2908 2905 2902 2900 2899 2897 2896 2894 2892 2891 2889 2887 2885 2884 2883 2881 2879 2879 2878 2878 2878 2878 2878 2878 2878
2945 2943 2940 2937 2935 2932 2929 2926 2922 2918 2914 2911 2909 2907 2903 2901 2899 2897 2894 2891 2889 2887 2885 2881 2880 2879 2877 2876 2874 2873 2871 2870 2869 2867 2866 2864 2863 2863 2862 2862 2862 2863 2863
2934 2932 2929 2927 2924 2921 2919 2914 2910 2907 2903 2901 2898 2893 2890 2887 2883 2880 2878 2876 2874 2872 2871 2869 2867 2866 2864 2862 2860 2858 2857 2855 2853 2852 2850 2849 2848 2848 2848 2848 2847 2847 2849
2923 2920 2917 2914 2912 2909 2906 2902 2900 2895 2893 2889 2884 2880 2876 2872 2867 2864 2861 2859 2858 2857 2855 2854 2852 2850 2849 2847 2844 2843 2841 2839 2837 2836 2834 2833 2833 2832 2832 2832 2833 2833 2834